Flag for Bahamas Weather past 2 weeks in Nassau, Bahamas

Now
82 °F

Passing clouds.


Feels Like: 88 °F
Forecast: 82 / 88 °F
Wind: 5 mph from Southeast

Location: Nassau Airport

Current Time: Aug 1, 2014 at 12:11:58 AM

Latest Report: Aug 1, 2014 at 12:00 AM


Visibility: N/A

Pressure: 30.04 "Hg

Humidity: 74%

Dew point: 73 °F

Location of NassauLocation

Historic Weather in Nassau — Graph

°F

Nassau temperature yesterday

Maximum temperature yesterday: 90 °F (at 12:00 PM)
Minimum temperature yesterday: 79 °F (at 1:00 AM)
Average temperature yesterday: 83 °F

Past Weeks' High & Low Weather Summary

 TemperatureHumidityPressure
High93 °F (Jul 29, 2:00 PM)100% (Jul 19, 8:00 PM)30.16 "Hg (Jul 19, 8:00 PM)
Low75 °F (Jul 20, 9:00 PM)52% (Jul 29, 1:00 PM)29.99 "Hg (Jul 29, 4:00 AM)
Average84 °F73%30.06 "Hg
* Reported Jul 16 11:00 PM — Jul 31 11:00 PM, Nassau, Weather by CustomWeather, © 2014

Note: Actual official high and low records may vary slightly from our data, if they occured in-between our weather recording intervals... More about our weather records

Advertising

Nassau weather history for previous 24 hours

 ConditionsComfort  
Time TempWeatherWind HumidityBarometerVisibility
11:00 PM
Jul 31
82 °FPassing clouds.7 mph79%30.05 "HgN/A
10:00 PM81 °FPassing clouds.No wind79%30.03 "HgN/A
9:00 PM84 °FPassing clouds.5 mph70%30.02 "HgN/A
8:00 PM86 °FScattered clouds.7 mph70%30.01 "HgN/A
7:00 PM88 °FScattered clouds.7 mph62%30.00 "HgN/A
6:00 PM88 °FScattered clouds.7 mph59%29.99 "HgN/A
5:00 PM86 °FPassing clouds.7 mph70%29.99 "HgN/A
12:51 PM90 °FHot.43 mph59%30.01 "HgN/A
12:00 PM90 °FScattered clouds.5 mph55%30.02 "HgN/A
8:00 AM82 °FRain showers. Scattered clouds.No wind84%30.00 "HgN/A
7:00 AM79 °FRain showers. Partly cloudy.No wind84%30.00 "HgN/A
5:00 AM79 °FPartly cloudy.No wind89%30.00 "HgN/A
3:00 AM79 °FPartly cloudy.No wind89%30.01 "HgN/A
2:00 AM79 °FSprinkles. Partly cloudy.No wind89%30.02 "HgN/A
1:00 AM79 °FThunderstorms. Partly cloudy.2 mph79%30.02 "HgN/A
12:00 AM82 °FPartly cloudy.No wind74%30.03 "HgN/A
Weather by CustomWeather, © 2014

See weather overviewHow to use our weather pages